Date String (YYYY-MM-DD hh:mm:ss) UTC,Instrument flags,absolute air pressure of the measurement (hPa),sample flow rate (lpm),inlet stack bypass flow (lpm),air temperature of the measurement (°C),ambient temperature measured by the external sensor (°C),aerosol sample conditioner tube jacket temperature (°C),OPC LED temperature (°C),internal box temperature (°C),relative humidity of the measurement (%),span deviation,mass concentration of particles derived from Lorenz-Mie calculation of OPC scattering (μg/m³),mass concentration of particles derived from Lorenz-Mie calculation of OPC scattering (μg/m³),mass concentration of particles derived from Lorenz-Mie calculation of OPC scattering (μg/m³)
DateTimeUTC,F1_M11,P_M11,Q1_M11,Q2_M11,T1_M11,T2_M11,T3_M11,T4_M11,T5_M11,U1_M11,ZSPAN_M11,X0_M11,X2_M11,X1_M11
2023-07-19 17:00:00,SystemResetWarning,0835.9,4.99,000.00,029.2,025.9,000.0,037.5,030.4,31.3,0000.0,0019.81,0005.45,0004.23
2023-07-19 17:01:00,SystemResetWarning,0836.0,5.00,000.00,029.2,026.4,000.0,037.6,030.5,33.0,0000.0,0019.51,0005.39,0004.20
2023-07-19 17:02:00,SystemResetWarning,0836.0,5.00,000.00,029.2,026.8,000.0,037.6,030.6,32.3,0000.0,0018.50,0005.36,0004.19
2023-07-19 17:03:00,SystemResetWarning,0836.1,4.99,000.00,029.2,027.1,000.0,037.6,030.7,32.9,0000.0,0016.96,0005.29,0004.17
2023-07-19 17:04:00,SystemResetWarning,0836.1,4.99,000.00,029.3,027.4,000.0,037.6,030.7,33.9,0000.0,0016.24,0005.27,0004.14
2023-07-19 17:05:00,SystemResetWarning,0836.1,5.00,000.00,029.3,027.6,000.0,037.6,030.8,33.0,0000.0,0015.24,0005.18,0004.11
2023-07-19 17:06:00,SystemResetWarning,0836.1,5.00,000.00,029.3,027.8,000.0,037.6,030.9,33.0,0000.0,0014.85,0005.12,0004.08
2023-07-19 17:07:00,SystemResetWarning,0836.2,5.00,000.00,029.4,028.0,000.0,037.7,030.9,31.8,0000.0,0013.67,0005.11,0004.05
2023-07-19 17:08:00,SystemResetWarning,0836.2,4.99,000.00,029.4,027.3,000.0,037.6,030.9,30.1,0000.0,0012.22,0005.05,0004.03
2023-07-19 17:09:00,SystemResetWarning,0836.2,5.00,000.00,029.3,025.7,000.0,037.5,030.7,30.1,0000.0,0011.97,0004.99,0004.01
2023-07-19 17:10:00,SystemResetWarning,0836.2,5.01,000.00,029.3,025.1,000.0,037.4,030.5,30.2,0000.0,0011.79,0004.96,0003.99
2023-07-19 17:11:00,SystemResetWarning,0836.2,5.01,000.00,029.2,025.3,000.0,037.4,030.3,30.4,0000.0,0010.82,0004.95,0003.98
2023-07-19 17:12:00,SystemResetWarning,0836.2,5.00,000.00,029.1,025.6,000.0,037.5,030.3,32.9,0000.0,0010.28,0004.93,0003.99
2023-07-19 17:13:00,SystemResetWarning,0836.2,4.99,000.00,029.1,026.1,000.0,037.5,030.4,32.5,0000.0,0010.84,0004.98,0004.02
2023-07-19 17:14:00,SystemResetWarning,0836.2,5.00,000.00,029.1,026.5,000.0,037.5,030.5,32.4,0000.0,0011.11,0004.99,0004.04
2023-07-19 17:15:00,SystemResetWarning,0836.2,5.00,000.00,029.1,026.9,000.0,037.5,030.6,33.6,0000.0,0010.97,0005.02,0004.06
2023-07-19 17:16:00,SystemResetWarning,0836.3,5.01,000.00,029.2,027.2,000.0,037.5,030.7,33.5,0000.0,0010.86,0005.11,0004.10
2023-07-19 17:17:00,SystemResetWarning,0836.4,4.99,000.00,029.2,027.5,000.0,037.6,030.7,34.1,0000.0,0010.86,0005.17,0004.15
2023-07-19 17:18:00,SystemResetWarning,0836.3,4.98,000.00,029.2,027.7,000.0,037.6,030.8,35.0,0000.0,0010.86,0005.20,0004.18
2023-07-19 17:19:00,SystemResetWarning,0836.3,5.05,000.00,029.4,027.9,000.0,037.6,030.9,34.7,0000.0,0011.17,0005.26,0004.21
2023-07-19 17:20:00,SystemResetWarning,0836.4,4.96,000.00,029.6,027.6,000.0,037.6,031.0,33.4,0000.0,0012.04,0005.27,0004.24
2023-07-19 17:21:00,SystemResetWarning,0836.3,5.02,000.00,029.7,026.0,000.0,037.5,030.9,34.1,0000.0,0012.57,0005.30,0004.26
2023-07-19 17:22:00,SystemResetWarning,0836.3,5.00,000.00,029.7,025.0,000.0,037.4,030.7,33.5,0000.0,0013.90,0005.31,0004.27
2023-07-19 17:23:00,SystemResetWarning,0836.2,5.00,000.00,029.6,025.1,000.0,037.4,030.5,32.9,0000.0,0014.04,0005.29,0004.27
2023-07-19 17:24:00,SystemResetWarning,0836.2,5.01,000.00,029.5,025.4,000.0,037.5,030.4,32.3,0000.0,0013.56,0005.25,0004.26
2023-07-19 17:25:00,SystemResetWarning,0836.2,5.00,000.00,029.5,025.9,000.0,037.6,030.5,32.9,0000.0,0013.70,0005.24,0004.26
2023-07-19 17:26:00,SystemResetWarning,0836.2,5.01,000.00,029.5,026.3,000.0,037.6,030.6,32.7,0000.0,0013.78,0005.21,0004.27
2023-07-19 17:27:00,SystemResetWarning,0836.2,5.00,000.00,029.5,026.7,000.0,037.7,030.7,33.7,0000.0,0014.05,0005.24,0004.27
2023-07-19 17:28:00,SystemResetWarning,0836.3,5.00,000.00,029.6,027.1,000.0,037.7,030.7,34.2,0000.0,0014.52,0005.20,0004.29
2023-07-19 17:29:00,SystemResetWarning,0836.3,5.00,000.00,029.6,027.4,000.0,037.7,030.8,34.1,0000.0,0015.16,0005.20,0004.30
2023-07-19 17:30:00,SystemResetWarning,0836.3,5.00,000.00,029.6,027.6,000.0,037.8,030.9,33.9,0000.0,0015.08,0005.22,0004.33
2023-07-19 17:31:00,SystemResetWarning,0836.2,5.00,000.00,029.6,027.8,000.0,037.8,030.9,33.9,0000.0,0015.15,0005.21,0004.35
2023-07-19 17:32:00,SystemResetWarning,0836.3,5.00,000.00,029.7,028.0,000.0,037.9,031.0,32.4,0000.0,0015.32,0005.27,0004.40
2023-07-19 17:33:00,SystemResetWarning,0836.3,5.00,000.00,029.7,028.0,000.0,037.9,031.1,31.1,0000.0,0015.17,0005.35,0004.43
2023-07-19 17:34:00,SystemResetWarning,0836.2,4.99,000.00,029.7,026.6,000.0,037.8,031.0,30.4,0000.0,0014.69,0005.40,0004.47
2023-07-19 17:35:00,SystemResetWarning,0836.2,5.02,000.00,029.7,025.2,000.0,037.7,030.7,31.8,0000.0,0014.85,0005.41,0004.48
2023-07-19 17:36:00,SystemResetWarning,0836.2,5.01,000.00,029.6,025.0,000.0,037.6,030.5,31.8,0000.0,0015.54,0005.42,0004.50
2023-07-19 17:37:00,SystemResetWarning,0836.2,5.00,000.00,029.5,025.3,000.0,037.7,030.4,32.0,0000.0,0016.35,0005.42,0004.49
2023-07-19 17:38:00,SystemResetWarning,0836.2,5.00,000.00,029.4,025.7,000.0,037.7,030.4,32.3,0000.0,0017.72,0005.44,0004.49
2023-07-19 17:39:00,SystemResetWarning,0836.2,4.99,000.00,029.4,026.2,000.0,037.7,030.5,32.2,0000.0,0018.13,0005.46,0004.47
2023-07-19 17:40:00,SystemResetWarning,0836.2,5.00,000.00,029.4,026.6,000.0,037.7,030.6,31.8,0000.0,0017.32,0005.49,0004.47
2023-07-19 17:41:00,SystemResetWarning,0836.2,5.00,000.00,029.4,026.9,000.0,037.7,030.7,32.5,0000.0,0017.56,0005.50,0004.46
2023-07-19 17:42:00,SystemResetWarning,0836.3,5.01,000.00,029.4,027.2,000.0,037.8,030.8,33.3,0000.0,0017.45,0005.55,0004.46
2023-07-19 17:43:00,SystemResetWarning,0836.3,5.00,000.00,029.5,027.5,000.0,037.8,030.9,33.9,0000.0,0016.79,0005.53,0004.44
2023-07-19 17:44:00,SystemResetWarning,0836.3,4.99,000.00,029.5,027.7,000.0,037.8,030.9,33.1,0000.0,0015.59,0005.50,0004.44
2023-07-19 17:45:00,SystemResetWarning,0836.3,5.00,000.00,029.5,027.9,000.0,037.8,031.0,31.9,0000.0,0015.84,0005.48,0004.42
2023-07-19 17:46:00,SystemResetWarning,0836.3,4.99,000.00,029.5,027.8,000.0,037.8,031.0,31.0,0000.0,0015.65,0005.50,0004.43
2023-07-19 17:47:00,SystemResetWarning,0836.3,5.00,000.00,029.5,026.2,000.0,037.7,030.8,31.3,0000.0,0014.57,0005.51,0004.43
2023-07-19 17:48:00,SystemResetWarning,0836.2,4.99,000.00,029.4,025.0,000.0,037.6,030.6,30.6,0000.0,0013.60,0005.55,0004.45
2023-07-19 17:49:00,SystemResetWarning,0836.2,5.01,000.00,029.3,025.0,000.0,037.5,030.4,30.8,0000.0,0011.92,0005.52,0004.46
2023-07-19 17:50:00,SystemResetWarning,0836.2,5.02,000.00,029.2,025.3,000.0,037.6,030.3,31.4,0000.0,0011.00,0005.43,0004.47
2023-07-19 17:51:00,SystemResetWarning,0836.2,5.00,000.00,029.2,025.8,000.0,037.6,030.4,30.1,0000.0,0011.76,0005.43,0004.46
2023-07-19 17:52:00,SystemResetWarning,0836.2,5.00,000.00,029.2,026.2,000.0,037.6,030.5,30.1,0000.0,0012.18,0005.42,0004.45
2023-07-19 17:53:00,SystemResetWarning,0836.2,5.00,000.00,029.2,026.6,000.0,037.6,030.6,29.4,0000.0,0012.30,0005.41,0004.45
2023-07-19 17:54:00,SystemResetWarning,0836.3,5.01,000.00,029.2,027.0,000.0,037.6,030.7,29.4,0000.0,0012.49,0005.47,0004.44
2023-07-19 17:55:00,SystemResetWarning,0836.3,5.00,000.00,029.2,027.3,000.0,037.6,030.7,29.4,0000.0,0013.69,0005.47,0004.45
2023-07-19 17:56:00,SystemResetWarning,0836.3,4.99,000.00,029.3,027.5,000.0,037.7,030.8,30.1,0000.0,0013.66,0005.52,0004.45
2023-07-19 17:57:00,SystemResetWarning,0836.3,5.00,000.00,029.3,027.7,000.0,037.7,030.9,29.8,0000.0,0014.05,0005.58,0004.45
2023-07-19 17:58:00,SystemResetWarning,0836.3,4.99,000.00,029.3,027.9,000.0,037.7,030.9,30.4,0000.0,0014.30,0005.57,0004.45
2023-07-19 17:59:00,SystemResetWarning,0836.3,4.99,000.00,029.4,027.5,000.0,037.6,030.9,30.2,0000.0,0014.85,0005.54,0004.43
